EW0433 Weather Reports


Display with metric or nautical units.
time (UTC)temp
F
wind
direction
speed
MPH
gust
MPH
rain 1hr
in
rain 24hr
in
rain mn
in
humidity
%
barometer
mb
20260508065335 52 248 5.0 12.0 0.00 0.00 0.00 69 1018.0
20260508064335 52 312 5.0 15.0 0.00 0.00 0.00 69 1018.0
20260508063343 52 273 8.0 18.0 0.00 0.00 0.00 69 1018.0
20260508062351 52 291 8.0 17.0 0.00 0.00 0.00 69 1018.1
20260508061319 52 244 9.0 16.0 0.00 0.00 0.00 69 1018.1
20260508060348 52 260 5.0 19.0 0.00 0.00 0.00 70 1018.1
20260508055319 52 319 5.0 15.0 0.00 0.00 0.00 70 1018.1
20260508054322 52 277 6.0 12.0 0.00 0.00 0.00 70 1018.1
20260508053319 52 305 6.0 14.0 0.00 0.00 0.00 70 1018.1
20260508052330 52 9 8.0 13.0 0.00 0.00 0.00 70 1018.0
20260508051332 52 298 4.0 14.0 0.00 0.00 0.00 70 1018.0
20260508050337 52 300 6.0 14.0 0.00 0.00 0.00 70 1018.0
20260508045356 52 325 7.0 15.0 0.00 0.00 0.00 70 1017.9
20260508044324 52 345 7.0 13.0 0.00 0.00 0.00 70 1017.9
20260508043325 52 256 3.0 16.0 0.00 0.00 0.00 71 1017.8
20260508042321 52 263 6.0 14.0 0.00 0.00 0.00 71 1017.6
20260508041337 52 306 4.0 18.0 0.00 0.00 0.00 71 1017.5
20260508040319 52 310 5.0 19.0 0.00 0.00 0.00 71 1017.3
20260508035315 52 259 7.0 16.0 0.00 0.00 0.00 71 1017.2
20260508034354 52 315 5.0 14.0 0.00 0.00 0.00 71 1017.2
20260508033358 52 261 5.0 14.0 0.00 0.00 0.00 71 1017.2
20260508032331 52 345 7.0 15.0 0.00 0.00 0.00 71 1017.1
20260508031324 52 285 9.0 17.0 0.00 0.00 0.00 71 1017.0
20260508030329 53 260 10.0 18.0 0.00 0.00 0.00 72 1016.9
20260508025323 53 275 9.0 16.0 0.00 0.00 0.00 72 1016.9
20260508024343 53 345 8.0 20.0 0.00 0.00 0.00 72 1016.8
20260508023353 53 345 7.0 14.0 0.00 0.00 0.00 72 1016.8
20260508022342 53 345 5.0 19.0 0.00 0.00 0.00 73 1016.9
20260508021329 54 345 8.0 15.0 0.00 0.00 0.00 74 1016.8
20260508020338 54 345 8.0 15.0 0.00 0.00 0.00 74 1016.8
20260508015328 54 345 8.0 16.0 0.00 0.00 0.00 75 1016.9
20260508014314 54 345 6.0 19.0 0.00 0.00 0.00 75 1017.0
20260508013321 55 345 8.0 18.0 0.00 0.00 0.00 76 1017.0
20260508012316 55 345 5.0 15.0 0.00 0.00 0.00 77 1017.1
20260508011331 55 345 9.0 18.0 0.00 0.00 0.00 77 1017.2
20260508010316 55 345 10.0 19.0 0.00 0.00 0.00 77 1017.2
20260508005332 55 345 11.0 20.0 0.00 0.00 0.00 77 1017.3
20260508004323 55 262 14.0 23.0 0.00 0.00 0.00 77 1017.4
20260508003311 56 256 10.0 20.0 0.00 0.00 0.00 78 1017.4
20260508002323 56 260 11.0 21.0 0.00 0.00 0.00 78 1017.4
20260508001333 56 244 14.0 26.0 0.00 0.00 0.00 78 1017.5
20260508000320 57 263 12.0 24.0 0.00 0.00 0.00 78 1017.4
20260507235359 57 277 13.0 25.0 0.00 0.00 0.00 77 1017.4
20260507234322 57 258 11.0 24.0 0.00 0.00 0.00 77 1017.3
20260507233332 58 280 15.0 26.0 0.00 0.00 0.00 75 1017.4
20260507232323 59 273 17.0 26.0 0.00 0.00 0.00 75 1017.4
20260507231333 60 271 16.0 22.0 0.00 0.00 0.00 73 1017.4
20260507230340 61 237 14.0 24.0 0.00 0.00 0.00 72 1017.4
20260507225315 63 255 12.0 21.0 0.00 0.00 0.00 71 1017.3
20260507224327 63 235 12.0 20.0 0.00 0.00 0.00 70 1017.3
20260507223324 64 245 12.0 19.0 0.00 0.00 0.00 70 1017.2
20260507222328 65 271 11.0 19.0 0.00 0.00 0.00 70 1017.3
20260507221322 66 258 10.0 16.0 0.00 0.00 0.00 70 1017.4
20260507220350 66 254 10.0 18.0 0.00 0.00 0.00 70 1017.5
20260507215316 66 273 10.0 17.0 0.00 0.00 0.00 70 1017.5
20260507214325 67 263 9.0 15.0 0.00 0.00 0.00 70 1017.6
20260507213315 68 326 9.0 13.0 0.00 0.00 0.00 69 1017.7
20260507212342 67 237 9.0 16.0 0.00 0.00 0.00 70 1017.8
20260507211315 68 266 6.0 12.0 0.00 0.00 0.00 71 1018.0
20260507210325 67 266 9.0 14.0 0.00 0.00 0.00 70 1018.0
20260507205337 67 247 8.0 13.0 0.00 0.00 0.00 70 1018.1
20260507204327 67 258 7.0 13.0 0.00 0.00 0.00 69 1018.2
20260507203327 67 254 4.0 12.0 0.00 0.00 0.00 70 1018.3
20260507202404 67 258 6.0 10.0 0.00 0.00 0.00 70 1018.4
20260507201319 66 246 7.0 10.0 0.00 0.00 0.00 70 1018.5
20260507200311 66 233 5.0 9.0 0.00 0.00 0.00 69 1018.6
20260507195337 64 222 4.0 9.0 0.00 0.00 0.00 70 1018.7
20260507194334 64 241 6.0 10.0 0.00 0.00 0.00 71 1018.8
20260507193318 63 252 5.0 9.0 0.00 0.00 0.00 71 1018.9
20260507192335 62 250 5.0 11.0 0.00 0.00 0.00 71 1019.0
20260507191327 61 245 7.0 11.0 0.00 0.00 0.00 71 1019.1
20260507190339 61 243 9.0 13.0 0.00 0.00 0.00 71 1019.2
20260507185328 60 248 7.0 12.0 0.00 0.00 0.00 72 1019.3
20260507184336 60 244 7.0 11.0 0.00 0.00 0.00 71 1019.4
20260507183334 59 271 6.0 11.0 0.00 0.00 0.00 70 1019.5
20260507182323 58 246 8.0 12.0 0.00 0.00 0.00 70 1019.6
20260507181327 58 247 5.0 13.0 0.00 0.00 0.00 70 1019.6
20260507180317 57 256 6.0 11.0 0.00 0.00 0.00 69 1019.6
20260507175338 57 237 5.0 8.0 0.00 0.00 0.00 68 1019.7
20260507174342 56 252 4.0 10.0 0.00 0.00 0.00 69 1019.7
20260507173330 55 277 2.0 9.0 0.00 0.00 0.00 68 1019.6
20260507172335 55 254 5.0 11.0 0.00 0.00 0.00 68 1019.7
20260507171327 54 280 4.0 8.0 0.00 0.00 0.00 68 1019.8
20260507170311 54 345 5.0 11.0 0.00 0.00 0.00 68 1019.8
20260507165337 53 345 5.0 10.0 0.00 0.00 0.00 68 1019.7
20260507164346 53 345 5.0 8.0 0.00 0.00 0.00 68 1019.6
20260507163332 53 345 2.0 4.0 0.00 0.00 0.00 68 1019.6
20260507162321 53 345 2.0 5.0 0.00 0.00 0.00 69 1019.6
20260507161349 52 345 3.0 8.0 0.00 0.00 0.00 69 1019.6
20260507160333 52 345 4.0 9.0 0.00 0.00 0.00 69 1019.6
20260507155316 52 260 3.0 9.0 0.00 0.00 0.00 69 1019.6
20260507154326 52 251 3.0 9.0 0.00 0.00 0.00 70 1019.6
20260507153324 51 321 2.0 6.0 0.00 0.00 0.00 70 1019.7
20260507152401 51 258 5.0 9.0 0.00 0.00 0.00 70 1019.6
20260507151342 51 313 2.0 6.0 0.00 0.00 0.00 70 1019.6
20260507150331 51 300 3.0 5.0 0.00 0.00 0.00 70 1019.6
20260507145316 51 345 3.0 8.0 0.00 0.00 0.00 70 1019.6
20260507144328 51 345 2.0 4.0 0.00 0.00 0.00 70 1019.6
20260507143323 51 345 1.0 4.0 0.00 0.00 0.00 70 1019.5
20260507142351 51 345 1.0 4.0 0.00 0.00 0.00 70 1019.5
20260507141319 51 345 2.0 6.0 0.00 0.00 0.00 70 1019.4
20260507140340 51 345 3.0 6.0 0.00 0.00 0.00 70 1019.4
20260507135328 51 345 2.0 6.0 0.00 0.00 0.00 70 1019.2
20260507134327 51 345 2.0 5.0 0.00 0.00 0.00 70 1019.2
20260507133314 50 345 3.0 6.0 0.00 0.00 0.00 70 1019.1
20260507132322 50 345 3.0 9.0 0.00 0.00 0.00 70 1019.0
20260507131358 51 345 3.0 9.0 0.00 0.00 0.00 70 1018.8
20260507130319 51 345 3.0 10.0 0.00 0.00 0.00 70 1018.8
20260507125335 51 345 3.0 11.0 0.00 0.00 0.00 70 1018.8
20260507124327 51 345 5.0 10.0 0.00 0.00 0.00 70 1018.8
20260507123325 51 345 4.0 10.0 0.00 0.00 0.00 70 1018.8
20260507122338 51 345 4.0 9.0 0.00 0.00 0.00 70 1018.8
20260507121347 51 345 5.0 9.0 0.00 0.00 0.00 70 1018.7
20260507120330 51 345 4.0 9.0 0.00 0.00 0.00 70 1018.7
20260507115314 51 345 5.0 11.0 0.00 0.00 0.00 70 1018.7
20260507114319 51 345 8.0 16.0 0.00 0.00 0.00 70 1018.7
20260507113320 51 345 5.0 12.0 0.00 0.00 0.00 70 1018.8
20260507112324 51 345 7.0 12.0 0.00 0.00 0.00 70 1018.8
20260507111312 51 264 7.0 13.0 0.00 0.00 0.00 70 1018.8
20260507110341 51 345 5.0 16.0 0.00 0.00 0.00 70 1018.8
20260507105318 51 248 5.0 14.0 0.00 0.00 0.00 70 1018.8
20260507104326 51 345 7.0 13.0 0.00 0.00 0.00 70 1018.8
20260507103333 52 258 6.0 14.0 0.00 0.00 0.00 70 1018.8
20260507102322 52 247 6.0 13.0 0.00 0.00 0.00 70 1019.0
20260507101324 52 345 6.0 11.0 0.00 0.00 0.00 70 1019.0
20260507100325 52 345 6.0 12.0 0.00 0.00 0.00 70 1019.0
20260507095336 52 345 4.0 8.0 0.00 0.00 0.00 70 1019.1
20260507094332 52 345 3.0 8.0 0.00 0.00 0.00 70 1019.1
20260507093317 52 345 3.0 9.0 0.00 0.00 0.00 70 1019.1
20260507092323 52 345 3.0 11.0 0.00 0.00 0.00 70 1019.2
20260507091331 52 345 3.0 10.0 0.00 0.00 0.00 70 1019.1
20260507090334 52 345 5.0 11.0 0.00 0.00 0.00 70 1019.2
20260507085316 52 345 2.0 8.0 0.00 0.00 0.00 70 1019.3
20260507084319 52 345 5.0 12.0 0.00 0.00 0.00 71 1019.3
20260507083326 52 345 5.0 10.0 0.00 0.00 0.00 71 1019.3
20260507082320 52 345 4.0 11.0 0.00 0.00 0.00 71 1019.4
20260507081323 52 345 4.0 11.0 0.00 0.00 0.00 71 1019.4
20260507080318 52 345 4.0 10.0 0.00 0.00 0.00 71 1019.4
20260507075323 52 345 4.0 12.0 0.00 0.00 0.00 71 1019.4
20260507074331 52 345 6.0 13.0 0.00 0.00 0.00 71 1019.5
20260507073319 52 345 5.0 10.0 0.00 0.00 0.00 71 1019.4
20260507072321 52 345 8.0 11.0 0.00 0.00 0.00 71 1019.4
20260507071329 52 345 4.0 10.0 0.00 0.00 0.00 71 1019.4
20260507070311 52 345 7.0 11.0 0.00 0.00 0.00 71 1019.3